CZ-7 DEB

Last updated on Thu Nov 21 2024 00:02:07 GMT+0000 (Coordinated Universal Time)

1 61987U 24211E 24321.11989614 .04777669 69678-5 55935-2 0 9998 2 61987 41.8022 236.3926 0222688 178.1516 182.0204 15.74500383 67

Satellite not in orbit